Location: Kvarnån
(66.4000°N, 22.2667°E)
Time: 21:35:42
(UTC+00:00)

Cosmos 2100 Rocket - Pass Details

Date: 15 October 2024
Orbit: 954 x 1001 km, 82.9° (Epoch: 06 November)

Event Time Altitude Azimuth Distance (km) Brightness Sun altitude
Rises 22:19:58 0° 338° (NNW) 3,656 7.9 -32.6°
Reaches altitude 10° 22:22:32 10° 343° (NNW) 2,704 7.1 -32.6°
Enters shadow 22:28:20 59° 49° (NE) 1,103 4.3 -32.5°
